Date,TemperatureHighF,TemperatureAvgF,TemperatureLowF,DewpointHighF,DewpointAvgF,DewpointLowF,HumidityHigh,HumidityAvg,HumidityLow,PressureMaxIn,PressureMinIn,WindSpeedMaxMPH,WindSpeedAvgMPH,GustSpeedMaxMPH,PrecipitationSumIn
2013-1-1,60,54,48,-100,-100,-100,0,0,100,0.00,40.00,0,-999,0,0.00
2013-1-2,48,44,43,-100,-100,-100,0,0,100,0.00,40.00,0,-999,0,0.00
2013-1-3,57,48,35,-100,-100,-100,0,0,100,0.00,40.00,0,-999,0,0.00
2013-1-4,54,50,47,-100,-100,-100,0,0,100,0.00,40.00,0,-999,0,0.00
2013-1-5,52,50,47,-100,-100,-100,0,0,100,0.00,40.00,0,-999,0,0.00
2013-1-6,62,49,42,-100,-100,-100,0,0,100,0.00,40.00,0,-999,0,0.00
2013-1-7,62,46,34,-100,-100,-100,0,0,100,0.00,40.00,0,-999,0,0.00
2013-1-8,65,58,50,-100,-100,-100,0,0,100,0.00,40.00,0,-999,0,0.00
2013-1-9,69,67,65,-100,-100,-100,0,0,100,0.00,40.00,0,-999,0,0.00
2013-1-10,76,70,64,-100,-100,-100,0,0,100,0.00,40.00,0,-999,0,0.00
2013-1-11,80,69,47,-100,-100,-100,0,0,100,0.00,40.00,0,-999,0,0.00
2013-1-12,82,78,72,-100,-100,-100,0,0,100,0.00,40.00,0,-999,0,0.00
2013-1-13,54,48,43,-100,-100,-100,0,0,100,0.00,40.00,0,-999,0,0.00
2013-1-14,45,42,39,-100,-100,-100,0,0,100,0.00,40.00,0,-999,0,0.00
2013-1-15,38,38,36,-100,-100,-100,0,0,100,0.00,40.00,0,-999,0,0.00
2013-1-16,53,45,39,-100,-100,-100,0,0,100,0.00,40.00,0,-999,0,0.00
2013-1-17,65,47,32,-100,-100,-100,0,0,100,0.00,40.00,0,-999,0,0.00
2013-1-18,68,48,36,-100,-100,-100,0,0,100,0.00,40.00,0,-999,0,0.00
2013-1-19,72,50,40,-100,-100,-100,0,0,100,0.00,40.00,0,-999,0,0.00
2013-1-20,75,53,40,-100,-100,-100,0,0,100,0.00,40.00,0,-999,0,0.00
2013-1-21,78,61,44,-100,-100,-100,0,0,100,0.00,40.00,0,-999,0,0.00
2013-1-22,76,55,42,-100,-100,-100,0,0,100,0.00,40.00,0,-999,0,0.00
2013-1-23,80,60,49,-100,-100,-100,0,0,100,0.00,40.00,0,-999,0,0.00
2013-1-24,80,70,62,-100,-100,-100,0,0,100,0.00,40.00,0,-999,0,0.00
2013-1-25,85,73,62,-100,-100,-100,0,0,100,0.00,40.00,0,-999,0,0.00
2013-1-26,82,66,58,-100,-100,-100,0,0,100,0.00,40.00,0,-999,0,0.00
2013-1-27,83,70,54,-100,-100,-100,0,0,100,0.00,40.00,0,-999,0,0.00
2013-1-28,86,77,73,-100,-100,-100,0,0,100,0.00,40.00,0,-999,0,0.00
2013-1-29,82,78,75,-100,-100,-100,0,0,100,0.00,40.00,0,-999,0,0.00
2013-1-30,63,57,43,-100,-100,-100,0,0,100,0.00,40.00,0,-999,0,0.00
2013-1-31,72,62,54,-100,-100,-100,0,0,100,0.00,40.00,0,-999,0,0.00
2013-2-1,73,60,46,-100,-100,-100,0,0,100,0.00,40.00,0,-999,0,0.00
2013-2-2,78,62,54,-100,-100,-100,0,0,100,0.00,40.00,0,-999,0,0.00
2013-2-3,75,58,43,-100,-100,-100,0,0,100,0.00,40.00,0,-999,0,0.00
2013-2-4,69,60,55,-100,-100,-100,0,0,100,0.00,40.00,0,-999,0,0.00
2013-2-5,80,70,65,-100,-100,-100,0,0,100,0.00,40.00,0,-999,0,0.00
2013-2-6,68,66,64,-100,-100,-100,0,0,100,0.00,40.00,0,-999,0,0.00
2013-2-7,73,65,59,-100,-100,-100,0,0,100,0.00,40.00,0,-999,0,0.00
2013-2-8,67,61,57,-100,-100,-100,0,0,100,0.00,40.00,0,-999,0,0.00
2013-2-9,66,58,51,-100,-100,-100,0,0,100,0.00,40.00,0,-999,0,0.00
2013-2-10,76,69,63,-100,-100,-100,0,0,100,0.00,40.00,0,-999,0,0.00
2013-2-11,62,58,55,-100,-100,-100,0,0,100,0.00,40.00,0,-999,0,0.00
2013-2-12,62,58,56,-100,-100,-100,0,0,100,0.00,40.00,0,-999,0,0.00
2013-2-13,59,53,47,-100,-100,-100,0,0,100,0.00,40.00,0,-999,0,0.00
2013-2-14,72,44,36,-100,-100,-100,0,0,100,0.00,40.00,0,-999,0,0.00
2013-2-15,64,51,40,-100,-100,-100,0,0,100,0.00,40.00,0,-999,0,0.00
2013-2-16,62,50,40,-100,-100,-100,0,0,100,0.00,40.00,0,-999,0,0.00
2013-2-17,77,51,36,-100,-100,-100,0,0,100,0.00,40.00,0,-999,0,0.00
2013-2-18,76,64,55,-100,-100,-100,0,0,100,0.00,40.00,0,-999,0,0.00
2013-2-19,67,53,44,-100,-100,-100,0,0,100,0.00,40.00,0,-999,0,0.00
2013-2-20,57,55,53,-100,-100,-100,0,0,100,0.00,40.00,0,-999,0,0.00
2013-2-21,78,62,52,-100,-100,-100,0,0,100,0.00,40.00,0,-999,0,0.00
2013-2-22,62,55,51,-100,-100,-100,0,0,100,0.00,40.00,0,-999,0,0.00
2013-2-23,71,54,43,-100,-100,-100,0,0,100,0.00,40.00,0,-999,0,0.00
2013-2-24,74,56,41,-100,-100,-100,0,0,100,0.00,40.00,0,-999,0,0.00
2013-2-25,73,65,52,-100,-100,-100,0,0,100,0.00,40.00,0,-999,0,0.00
2013-2-26,65,54,48,-100,-100,-100,0,0,100,0.00,40.00,0,-999,0,0.00
2013-2-27,69,54,43,-100,-100,-100,0,0,100,0.00,40.00,0,-999,0,0.00
2013-2-28,62,48,40,-100,-100,-100,0,0,100,0.00,40.00,0,-999,0,0.00
2013-3-1,64,52,40,-100,-100,-100,0,0,100,0.00,40.00,0,-999,0,0.00
2013-3-2,54,45,37,-100,-100,-100,0,0,100,0.00,40.00,0,-999,0,0.00
2013-3-3,76,58,32,-100,-100,-100,0,0,100,0.00,40.00,0,-999,0,0.00
2013-3-4,84,67,56,-100,-100,-100,0,0,100,0.00,40.00,0,-999,0,0.00
2013-3-5,70,66,55,-100,-100,-100,0,0,100,0.00,40.00,0,-999,0,0.00
2013-3-6,70,53,39,-100,-100,-100,0,0,100,0.00,40.00,0,-999,0,0.00
2013-3-7,76,62,40,-100,-100,-100,0,0,100,0.00,40.00,0,-999,0,0.00
2013-3-8,76,66,48,-100,-100,-100,0,0,100,0.00,40.00,0,-999,0,0.00
2013-3-9,81,72,64,-100,-100,-100,0,0,100,0.00,40.00,0,-999,0,0.00
2013-3-10,71,68,58,-100,-100,-100,0,0,100,0.00,40.00,0,-999,0,0.00
2013-3-11,63,52,44,-100,-100,-100,0,0,100,0.00,40.00,0,-999,0,0.00
2013-3-12,72,56,37,-100,-100,-100,0,0,100,0.00,40.00,0,-999,0,0.00
2013-3-13,74,54,43,-100,-100,-100,0,0,100,0.00,40.00,0,-999,0,0.00
2013-3-14,81,62,43,-100,-100,-100,0,0,100,0.00,40.00,0,-999,0,0.00
2013-3-15,87,69,53,-100,-100,-100,0,0,100,0.00,40.00,0,-999,0,0.00
2013-3-16,89,74,64,-100,-100,-100,0,0,100,0.00,40.00,0,-999,0,0.00
2013-3-17,88,76,67,-100,-100,-100,0,0,100,0.00,40.00,0,-999,0,0.00
2013-3-18,90,78,71,-100,-100,-100,0,0,100,0.00,40.00,0,-999,0,0.00
2013-3-19,82,69,58,-100,-100,-100,0,0,100,0.00,40.00,0,-999,0,0.00
2013-3-20,75,63,54,-100,-100,-100,0,0,100,0.00,40.00,0,-999,0,0.00
2013-3-21,78,64,50,-100,-100,-100,0,0,100,0.00,40.00,0,-999,0,0.00
2013-3-22,91,75,68,-100,-100,-100,0,0,100,0.00,40.00,0,-999,0,0.00
2013-3-23,68,64,59,-100,-100,-100,0,0,100,0.00,40.00,0,-999,0,0.00
2013-3-24,65,58,51,-100,-100,-100,0,0,100,0.00,40.00,0,-999,0,0.00
2013-3-25,64,50,40,-100,-100,-100,0,0,100,0.00,40.00,0,-999,0,0.00
2013-3-26,63,49,35,-100,-100,-100,0,0,100,0.00,40.00,0,-999,0,0.00
2013-3-27,80,54,35,-100,-100,-100,0,0,100,0.00,40.00,0,-999,0,0.00
2013-3-28,77,67,59,-100,-100,-100,0,0,100,0.00,40.00,0,-999,0,0.00
2013-3-29,84,73,61,-100,-100,-100,0,0,100,0.00,40.00,0,-999,0,0.00
2013-3-30,86,75,68,-100,-100,-100,0,0,100,0.00,40.00,0,-999,0,0.00
2013-3-31,78,74,71,-100,-100,-100,0,0,100,0.00,40.00,0,-999,0,0.00
2013-4-1,84,70,62,-100,-100,-100,0,0,100,0.00,40.00,0,-999,0,0.00
2013-4-2,85,72,64,-100,-100,-100,0,0,100,0.00,40.00,0,-999,0,0.00
2013-4-3,71,57,51,-100,-100,-100,0,0,100,0.00,40.00,0,-999,0,0.00
2013-4-4,54,52,50,-100,-100,-100,0,0,100,0.00,40.00,0,-999,0,0.00
2013-4-5,78,62,45,-100,-100,-100,0,0,100,0.00,40.00,0,-999,0,0.00
2013-4-6,87,69,51,-100,-100,-100,0,0,100,0.00,40.00,0,-999,0,0.00
2013-4-7,87,73,62,-100,-100,-100,0,0,100,0.00,40.00,0,-999,0,0.00
2013-4-8,91,80,73,-100,-100,-100,0,0,100,0.00,40.00,0,-999,0,0.00
2013-4-9,93,81,74,-100,-100,-100,0,0,100,0.00,40.00,0,-999,0,0.00
2013-4-10,83,74,53,-100,-100,-100,0,0,100,0.00,40.00,0,-999,0,0.00
2013-4-11,73,59,47,-100,-100,-100,0,0,100,0.00,40.00,0,-999,0,0.00
2013-4-12,86,68,47,-100,-100,-100,0,0,100,0.00,40.00,0,-999,0,0.00
2013-4-13,83,64,51,-100,-100,-100,0,0,100,0.00,40.00,0,-999,0,0.00
2013-4-14,93,70,55,-100,-100,-100,0,0,100,0.00,40.00,0,-999,0,0.00
2013-4-15,99,83,74,-100,-100,-100,0,0,100,0.00,40.00,0,-999,0,0.00
2013-4-16,94,83,80,-100,-100,-100,0,0,100,0.00,40.00,0,-999,0,0.00
2013-4-17,91,84,80,-100,-100,-100,0,0,100,0.00,40.00,0,-999,0,0.00
2013-4-18,82,70,56,-100,-100,-100,0,0,100,0.00,40.00,0,-999,0,0.00
2013-4-19,69,56,47,-100,-100,-100,0,0,100,0.00,40.00,0,-999,0,0.00
2013-4-20,80,60,41,-100,-100,-100,0,0,100,0.00,40.00,0,-999,0,0.00
2013-4-21,80,63,47,-100,-100,-100,0,0,100,0.00,40.00,0,-999,0,0.00
2013-4-22,88,72,51,-100,-100,-100,0,0,100,0.00,40.00,0,-999,0,0.00
2013-4-23,87,72,65,-100,-100,-100,0,0,100,0.00,40.00,0,-999,0,0.00
2013-4-24,73,65,52,-100,-100,-100,0,0,100,0.00,40.00,0,-999,0,0.00
2013-4-25,79,67,58,-100,-100,-100,0,0,100,0.00,40.00,0,-999,0,0.00
2013-4-26,89,72,63,-100,-100,-100,0,0,100,0.00,40.00,0,-999,0,0.00
2013-4-27,95,84,74,-100,-100,-100,0,0,100,0.00,40.00,0,-999,0,0.00
2013-4-28,92,81,71,-100,-100,-100,0,0,100,0.00,40.00,0,-999,0,0.00
2013-4-29,92,80,63,-100,-100,-100,0,0,100,0.00,40.00,0,-999,0,0.00
2013-4-30,91,77,66,-100,-100,-100,0,0,100,0.00,40.00,0,-999,0,0.00
2013-5-1,90,77,72,-100,-100,-100,0,0,100,0.00,40.00,0,-999,0,0.00
2013-5-2,77,70,53,-100,-100,-100,0,0,100,0.00,40.00,0,-999,0,0.00
2013-5-3,68,56,48,-100,-100,-100,0,0,100,0.00,40.00,0,-999,0,0.00
2013-5-4,83,65,43,-100,-100,-100,0,0,100,0.00,40.00,0,-999,0,0.00
2013-5-5,72,58,48,-100,-100,-100,0,0,100,0.00,40.00,0,-999,0,0.00
2013-5-6,85,69,49,-100,-100,-100,0,0,100,0.00,40.00,0,-999,0,0.00
2013-5-7,94,74,63,-100,-100,-100,0,0,100,0.00,40.00,0,-999,0,0.00
2013-5-8,94,83,63,-100,-100,-100,0,0,100,0.00,40.00,0,-999,0,0.00
2013-5-9,86,79,73,-100,-100,-100,0,0,100,0.00,40.00,0,-999,0,0.00
2013-5-10,91,78,73,-100,-100,-100,0,0,100,0.00,40.00,0,-999,0,0.00
2013-5-11,87,77,69,-100,-100,-100,0,0,100,0.00,40.00,0,-999,0,0.00
2013-5-12,82,75,62,-100,-100,-100,0,0,100,0.00,40.00,0,-999,0,0.00
2013-5-13,97,75,54,-100,-100,-100,0,0,100,0.00,40.00,0,-999,0,0.00
2013-12-16,43,43,43,-100,-100,-100,0,0,100,0.00,40.00,0,-999,0,0.00
2013-12-17,73,52,37,-100,-100,-100,0,0,100,0.00,40.00,0,-999,0,0.00
2013-12-18,73,52,39,-100,-100,-100,0,0,100,0.00,40.00,0,-999,0,0.00
2013-12-19,58,56,55,-100,-100,-100,0,0,100,0.00,40.00,0,-999,0,0.00
2013-12-20,80,80,80,-100,-100,-100,0,0,100,0.00,40.00,0,-999,0,0.00
2013-12-21,62,61,60,-100,-100,-100,0,0,100,0.00,40.00,0,-999,0,0.00
2013-12-22,59,53,43,-100,-100,-100,0,0,100,0.00,40.00,0,-999,0,0.00
2013-12-23,55,42,36,-100,-100,-100,0,0,100,0.00,40.00,0,-999,0,0.00
2013-12-24,58,42,31,-100,-100,-100,0,0,100,0.00,40.00,0,-999,0,0.00
2013-12-25,64,41,32,-100,-100,-100,0,0,100,0.00,40.00,0,-999,0,0.00
2013-12-26,54,49,41,-100,-100,-100,0,0,100,0.00,40.00,0,-999,0,0.00
2013-12-27,62,48,41,-100,-100,-100,0,0,100,0.00,40.00,0,-999,0,0.00
2013-12-28,63,51,46,-100,-100,-100,0,0,100,0.00,40.00,0,-999,0,0.00
2013-12-29,54,43,39,-100,-100,-100,0,0,100,0.00,40.00,0,-999,0,0.00
2013-12-30,47,44,41,-100,-100,-100,0,0,100,0.00,40.00,0,-999,0,0.00
2013-12-31,52,44,40,-100,-100,-100,0,0,100,0.00,40.00,0,-999,0,0.00
2014-1-1,47,41,38,-100,-100,-100,0,0,100,0.00,40.00,0,-999,0,0.00
2014-1-2,53,43,36,-100,-100,-100,0,0,100,0.00,40.00,0,-999,0,0.00